922  
ASUS42 KRAH 201410  
RWRRAH  
NORTH CAROLINA WEATHER ROUNDUP  
NATIONAL WEATHER SERVICE RALEIGH NC  
1000 AM EDT THU JUN 20 2024  
 
NOTE: "FAIR" INDICATES FEW OR NO CLOUDS BELOW 12,000 FEET WITH NO  
SIGNIFICANT WEATHER AND/OR S TO VISIBILITY
.  
 
NCZ001-053-055-056-065-067-201500-  
WESTERN NORTH CAROLINA  
 
CITY SKY/WX TMP DP RH WIND PRES REMARKS
 
ASHEVILLE SUNNY 75 62 64 VRB3 30.42S  
JEFFERSON MOSUNNY 69 61 74 CALM 30.48R  
MORGANTON MOSUNNY 75 65 70 CALM 30.40S  
HICKORY NOT AVBL  
WILKESBORO MOSUNNY 72 63 73 CALM 30.45S  
RUTHERFORDTON SUNNY 75 63 64 CALM 30.40R  
MOUNT AIRY NOT AVBL  
BOONE PTSUNNY 69 61 76 E3 30.29S  

 
 
NCZ021-022-025-041-071-084-088-201500-  
CENTRAL NORTH CAROLINA  
 
CITY SKY/WX TMP DP RH WIND PRES REMARKS
 
CHARLOTTE PTSUNNY 79 62 56 CALM 30.37S  
GREENSBORO CLOUDY 78 65 63 CALM 30.38R  
WINSTON-SALEM MOSUNNY 77 62 59 SW3 30.39S  
RALEIGH-DURHAM PTSUNNY 80 66 62 NE3 30.37R  
FORT BRAGG PTSUNNY 81 65 57 E9 30.33S  
FAYETTEVILLE CLOUDY 80 65 59 NE8 30.34S  
BURLINGTON MOSUNNY 77 66 68 CALM 30.37S  
ROXBORO MOSUNNY 75 64 69 CALM 30.40S  
HENDERSON NOT AVBL  
LOUISBURG PTSUNNY 77 64 65 CALM 30.38S  
LAURINBURG MOSUNNY 81 65 58 E13G18 30.34F  

 
 
NCZ011-015-027-028-043-044-047-080-103-201500-  
NORTHEASTERN NORTH CAROLINA  
 
CITY SKY/WX TMP DP RH WIND PRES REMARKS
 
ROCKY MT-WILSO MOSUNNY 82 71 69 VRB3 30.36S  
GREENVILLE MOSUNNY 81 63 54 E5 30.34F  
WASHINGTON MOSUNNY 81 65 57 E8 30.35S  
ELIZABETH CITY SUNNY 82 65 56 E8 30.36S  
MANTEO SUNNY 80 62 55 E9 30.36S  
CAPE HATTERAS MOSUNNY 84 67 56 SE12 30.33S  

 
 
NCZ078-087-090-091-093-098-101-201500-  
SOUTHEASTERN NORTH CAROLINA  
 
CITY SKY/WX TMP DP RH WIND PRES REMARKS
 
LUMBERTON SUNNY 82 64 54 E9 30.32F  
GOLDSBORO MOSUNNY 83 65 55 E7 30.31F  
KINSTON PTSUNNY 81 64 57 E6 30.35S  
KENANSVILLE MOSUNNY 79 66 65 E6 30.35S  
NEW BERN MOSUNNY 81 65 58 E9 30.34S  
CHERRY POINT PTSUNNY 81 65 58 E12G22 30.33S  
BEAUFORT MOSUNNY 82 65 56 E10 30.32S  
JACKSONVILLE MOSUNNY 80 66 62 E10 30.32R  
WILMINGTON PTSUNNY 82 65 56 E13G23 30.31S  

 
 
 
 
CLICK HERE TO GO TO PREVIOUS BULLETINS.

The Nexlab NC Page Main Text Page